www.pogodaiklimat.ru

Погода и климат >> Архив погоды >> Россия >> Иркутская область >> Перевоз


ПОГОДА в Перевозе

  • Прогноз погоды в Перевозе
  • Монитор погоды в Перевозе

АРХИВ ПОГОДЫ в Перевозе

Время (UTC), дата Ветер
(напр.,м/с)
 
Видим.   Явления Облачность Т
(С)
Тd
(С)
f
(%)
Тe
(С)
Тes
(С)
Комфортность P
(гПа)
Po
(гПа)
Тmin
(С)
Tmax
(С)
R
(мм)
R24
(мм)
S
(см)
03 16.09 ЮЗ 2 50 км 9/9 1000 м
[Cb cap]
+4.8 -1.5 64 +3 +3 1008.7 968.7
09 16.09 ЮЗ 1 50 км в посл. час ливневой дождь 9/9 1000 м
[Cb cap]
+3.9 +2.4 90 +2 +2 1010.4 970.3
18 16.09 штиль 0 н/о 9/9 1000 м
[Cb cap]
-0.6 -1.5 94 -2 -2 1017.5 976.4
21 16.09 СЗ 1 н/о слаб. ливневой снег 10/10 1000 м
[Cb cap]
-0.2 -1.1 94 -2 -2 1019.3 978.1
00 17.09 З 1 50 км {ливн. осадки} 9/9 1000 м
[Cb cap]
+0.2 -0.4 96 -2 -2 1020.3 979.2 -0.6 0.1 <0.5
03 17.09 СЗ 1 50 км 9/8 1000 м
[Cb cap Ac trans]
+4.4 -5.3 49 +4 +5 1020.0 979.5
09 17.09 СЗ 2 50 км 9/5 1000 м
[Cb cap Ac trans Ci fib]
+7.4 -4.2 44 +6 +6 1019.7 979.6
18 17.09 штиль 0 н/о 9/9 1000 м
[Cb cap]
+3.2 -2.9 64 +3 +3 1020.7 980.1
21 17.09 ЮЗ 1 н/о 8/0
[Ac lent Ci ing]
-0.6 -3.7 80 -3 -3 1020.9 979.7
00 18.09 штиль 0 50 км 9/0
[Ac trans Ci ing]
+1.6 -0.6 85 +1 +2 1021.2 980.3 -1.1
03 18.09 В 1 50 км 9/3 1000 м
[Cb cap Ac trans]
+6.2 -2.3 54 +6 +8 1018.5 978.4
06 18.09 З 2 20 км осадки на расстоянии 10/8 1000 м
[Cb cap As trans]
+6.3 -2.1 55 +4 +5 1016.7 976.7
09 18.09 Ю 1 20 км слаб. ливневой дождь 10/10 1000 м
[Cb cap]
+5.0 +2.0 81 +4 +4 1015.0 974.9
12 18.09 Ю 1 н/о слаб. ливневой дождь 10/10 1000 м
[Cb cap]
+3.6 +3.1 97 +2 +2 1013.4 973.0 +6.3 0.7
15 18.09 Ю 1 н/о {ливн. осадки} 10/10 1000 м
[Cb cap]
+3.6 +2.6 93 +2 +2 1009.4 969.2
18 18.09 ЮВ 1 н/о {ливн. осадки} 9/9 1000 м
[Cb cap]
+3.7 +3.0 95 +2 +2 1006.2 966.3
21 18.09 З 2 н/о слаб. ливневой дождь 10/10 1000 м
[Cb cap]
+7.6 +5.1 84 +6 +6 1003.5 964.2
00 19.09 СЗ 3 50 км {ливн. осадки} 9/8 1000 м
[Cb cap Ac lent]
+5.2 0.0 69 +2 +2 1006.8 967.0 +3.6 2
03 19.09 СЗ 3 50 км 10/4 1000 м
[Cb cap Ac lent Cs]
+6.4 -2.7 52 +4 +5 1008.4 968.7
06 19.09 СЗ 3 50 км 9/5 1000 м
[Cb cap Ci ing]
+7.6 -4.3 43 +5 +7 1010.8 971.1
09 19.09 СЗ 4
{10}
50 км 9/9 1000 м
[Cb cap]
+6.2 -6.6 39 +3 +3 1015.2 975.5
12 19.09 З 1 н/о 8/6 1000 м
[Cb cap Ci ing]
+1.6 -5.3 60 0 0 1019.3 978.4 +7.6
15 19.09 штиль 0 н/о ясно -2.8 -3.8 93 -4 -4 1022.4 980.8
18 19.09 СЗ 1 н/о ясно -4.2 -4.4 99 -7 -7 1024.1 982.1
21 19.09 СЗ 1 н/о 3/0
[Ac lent]
-4.4 -4.3 100 -7 -7 1024.7 982.7
00 20.09 штиль 0 10 км 6/4 600 м
[St Ci fib]
-4.2 -4.7 96 -5 -5 1024.8 982.8 -5.2
03 20.09 В 1 50 км 10/3 1000 м
[Sc Cs]
+5.2 -3.0 55 +5 +8 1020.7 980.4
09 20.09 штиль 0 20 км слаб. ливневой дождь 10/10 1000 м
[Cb cap]
+7.6 +2.3 69 +7 +7 1016.4 976.5
12 20.09 В 1 н/о слаб. ливневой дождь 10/10 1000 м
[Cb cap]
+6.8 +5.2 90 +6 +6 1014.6 974.8 +8.5 1
15 20.09 СВ 1 н/о {ливн. осадки} 10/10 1000 м
[Cb cap]
+7.4 +4.9 84 +7 +7 1014.8 974.3
18 20.09 штиль 0 н/о {ливн. осадки} 9/9 1000 м
[Cb cap]
+8.8 +5.7 81 +8 +8 1013.0 973.5
21 20.09 СЗ 2 н/о 9/9 1000 м
[Cb cap]
+6.6 +5.2 91 +4 +4 1014.1 974.3
00 21.09 З 1 50 км 9/9 1000 м
[Cb cap]
+7.1 +5.5 90 +6 +6 1014.2 974.4 +6.4 0.0

 

Местоположение метеостанции Перевоз (Иркутская область, Россия): широта 59.00 долгота 116.90 высота над уровнем моря 331 м.

В архиве по умолчанию представлена погода в Перевозе за последнюю неделю. Архивные данные за месяц целиком и за предыдущие месяцы, начиная с января 2011 года, Вы можете получить, выбрав интересующий диапазон дат из раскрывающегося списка и нажав кнопку "Ввод!".


*Определитесь, кто Вы:
робот инопланетянин человек

Внимание! Время в таблицах - всемирное. Для получения местного времени необходимо прибавить поправку, которая равна 8 ч.

Смотрите также архив погоды в соседних городах и на ближайших метеорологических станциях:

Погода в Маче (Якутия, Россия) (111 км)
Погода в Тяне (Якутия, Россия) (166 км)
Погода в Мамакане (Иркутская область, Россия) (215 км)
Погода в Ленске (Якутия, Россия) (224 км)
Погода в Чаре (Забайкальский край, Россия) (246 км)
Погода в Маме (Иркутская область, Россия) (249 км)
Погода в Олекминске (Якутия, Россия) (251 км)
Погода в Килиере (Якутия, Россия) (255 км)
Погода в Витиме (Якутия, Россия) (255 км)
Погода в Удокане (Забайкальский край, Россия) (264 км)

Пояснения к столбцам:

Ветер - указаны скорость ветра в м/с - средняя за 10 мин, порывы в срок и между сроками (в фигурных скобках) и направление, откуда дует ветер: С - северный, СВ - северо-восточный, В - восточный, ЮВ - юго-восточный, Ю - южный, ЮЗ - юго-западный, З - западный, СЗ - северо-западный.
Видимость - горизонтальная дальность видимости в метрах или километрах. При видимости от 1 до 10 км при отсутствии осадков обычно наблюдается дымка, при ухудшении видимости до 1 км и менее - туман. В сухую погоду видимость может ухудшаться дымом, пылью или мглою.
Явления - указаны атмосферные явления, наблюдавшиеся в срок или в последний час перед сроком; фигурными скобками обозначены явления, наблюдавшиеся между сроками (за 1-3 часа до срока); квадратными скобками обозначены град или гололедные отложения с указанием их диаметра в мм.
Облачность - указаны через наклонную черту общая и нижняя облачность в баллах и высота нижней границы облаков в метрах; квадратными скобками обозначены формы облаков: Ci - перистые, Cs - перисто-слоистые, Cc - перисто-кучевые, Ac - высококучевые, As - высокослоистые, Sc - слоисто-кучевые, Ns - слоисто-дождевые, Cu - кучевые, Cb - кучево-дождевые. Подробнее классификацию облаков см. в Атласе облаков (PDF).
T - Температура воздуха - температура, измеренная на высоте 2 м над землей.
Td - Температура точки росы - температура, при понижении до которой содержащийся в воздухе водяной пар достигнет насыщения.
f - Относительная влажность воздуха - влажноcть воздуха, измеренная на высоте 2 м над землей.
Te - Эффективная температура - температура, которую ощущает одетый по сезону человек в тени. Характеристика душности погоды. При расчете учитывается влияние влажности воздуха и скорости ветра на теплоощущения человека.
Tes - Эффективная температура на солнце - температура, которую ощущает человек, с поправкой на солнечный нагрев. Характеристика знойности погоды. Зависит от высоты солнца над горизонтом, облачности и скорости ветра. Ночью, в пасмурную погоду, а также при ветре 12 м/с и более поправка равна нулю.
P - Атмосферное давление - приведенное к уровню моря атмосферное давление.
Po - Атмосферное давление - измеренное на уровне метеостанции атмосферное давление.
Tmin - Минимальная температура - минимум температуры воздуха на высоте 2 м над землей.
Tmax - Максимальная температура - максимум температуры воздуха на высоте 2 м над землей.
R - Количество осадков - Количество выпавших осадков за период времени, мм. При наведении курсора мыши на число - период времени, за который выпало указанное количество осадков.
R24 - Количество осадков - Количество выпавших осадков за 24 часа, мм.
S - Снежный покров - Высота снежного покрова, см. При наведении курсора мыши на число - состояние снежного покрова и степень покрытия местности в баллах.